When you browse on this site, cookies collect data to enhance your experience and personalize the content and advertising you see.
Visit our Privacy Policy to learn more. By continuing to use the site, you agree to this use of cookies and data.
  • In Hungary
  • List of Countries
  • For 7 days
  • Water Temperature
  • Satellite Maps
  • Weather Map
  • News
  • Weather Widgets
  • user-avatar
    Login

    Hourly Weather Cerignola

    Today, 23 January, Wednesday

    Time Temperature Precipitation Wind Pressure Humidity
    00:00 +5°C° 0 mm 4 mps 741 mmHg 79%
    01:00 +5°C° 0 mm 4 mps 741 mmHg 80%
    02:00 +4°C° 0 mm 3 mps 741 mmHg 81%
    03:00 +4°C° 0 mm 3 mps 740 mmHg 81%
    04:00 +4°C° 0 mm 3 mps 740 mmHg 82%
    05:00 +4°C° 0 mm 3 mps 740 mmHg 82%
    06:00 +3°C° 0 mm 3 mps 739 mmHg 83%
    07:00 +3°C° 0 mm 3 mps 739 mmHg 84%
    08:00 +5°C° 0 mm 4 mps 739 mmHg 75%
    09:00 +6°C° 0 mm 4 mps 739 mmHg 66%
    10:00 +8°C° 0 mm 5 mps 739 mmHg 57%
    11:00 +9°C° 0 mm 5 mps 739 mmHg 54%
    12:00 +11°C° 0 mm 4 mps 739 mmHg 50%
    13:00 +11°C° 0 mm 4 mps 738 mmHg 47%
    14:00 +11°C° 0 mm 4 mps 738 mmHg 49%
    15:00 +10°C° 0 mm 3 mps 737 mmHg 51%
    16:00 +10°C° 0 mm 3 mps 737 mmHg 53%
    17:00 +8°C° 0 mm 2 mps 737 mmHg 57%
    18:00 +7°C° 0 mm 2 mps 737 mmHg 62%
    19:00 +6°C° 0 mm 1 mps 737 mmHg 66%
    20:00 +6°C° 0 mm 1 mps 736 mmHg 68%
    21:00 +6°C° 0 mm 1 mps 736 mmHg 69%
    22:00 +5°C° 0 mm 1 mps 736 mmHg 71%
    23:00 +5°C° 0 mm 1 mps 735 mmHg 72%

    Tomorrow, 24 January, Thursday

    Time Temperature Precipitation Wind Pressure Humidity
    00:00 +5°C° 0 mm 1 mps 735 mmHg 73%
    01:00 +5°C° 0 mm 1 mps 734 mmHg 74%
    02:00 +5°C° 0 mm 1 mps 734 mmHg 75%
    03:00 +4°C° 0 mm 1 mps 733 mmHg 75%
    04:00 +4°C° 0 mm 1 mps 733 mmHg 76%
    05:00 +4°C° 0 mm 1 mps 733 mmHg 76%
    06:00 +3°C° 0 mm 0 mps 732 mmHg 77%
    07:00 +3°C° 0 mm 0 mps 732 mmHg 77%
    08:00 +6°C° 0 mm 1 mps 732 mmHg 71%
    09:00 +7°C° 0 mm 2 mps 732 mmHg 65%
    10:00 +9°C° 0 mm 3 mps 732 mmHg 59%
    11:00 +9°C° 0 mm 3 mps 732 mmHg 56%
    12:00 +10°C° 0 mm 4 mps 732 mmHg 54%
    13:00 +11°C° 0 mm 4 mps 732 mmHg 51%
    14:00 +10°C° 0 mm 5 mps 732 mmHg 55%
    15:00 +9°C° 0 mm 5 mps 731 mmHg 59%
    16:00 +9°C° 0 mm 5 mps 731 mmHg 63%
    17:00 +8°C° 0 mm 5 mps 731 mmHg 67%
    18:00 +7°C° 0 mm 5 mps 732 mmHg 71%
    19:00 +6°C° 0 mm 4 mps 732 mmHg 75%
    20:00 +6°C° 0 mm 4 mps 732 mmHg 74%
    21:00 +5°C° 0 mm 4 mps 732 mmHg 74%
    22:00 +5°C° 0 mm 4 mps 732 mmHg 73%
    23:00 +5°C° 0 mm 4 mps 732 mmHg 75%

    Day after tomorrow, 25 January, Friday

    Time Temperature Precipitation Wind Pressure Humidity
    00:00 +5°C° 0 mm 5 mps 732 mmHg 76%
    01:00 +6°C° 0 mm 5 mps 732 mmHg 77%
    02:00 +5°C° 0 mm 5 mps 732 mmHg 77%
    03:00 +5°C° 0 mm 5 mps 732 mmHg 77%
    04:00 +5°C° 0 mm 4 mps 732 mmHg 77%
    05:00 +5°C° 0 mm 5 mps 732 mmHg 77%
    06:00 +5°C° 0 mm 5 mps 733 mmHg 77%
    07:00 +5°C° 0 mm 5 mps 733 mmHg 76%
    08:00 +4°C° 0.1 mm 6 mps 733 mmHg 73%
    09:00 +5°C° 0.1 mm 6 mps 734 mmHg 70%
    10:00 +6°C° 0.1 mm 7 mps 734 mmHg 66%
    11:00 +6°C° 0.1 mm 7 mps 734 mmHg 66%
    12:00 +6°C° 0.1 mm 7 mps 735 mmHg 66%
    13:00 +6°C° 0.1 mm 7 mps 735 mmHg 65%
    14:00 +6°C° 0.2 mm 7 mps 735 mmHg 67%
    15:00 +5°C° 0.2 mm 7 mps 735 mmHg 69%
    16:00 +5°C° 0.2 mm 6 mps 735 mmHg 71%
    17:00 +4°C° 0.1 mm 6 mps 735 mmHg 72%
    18:00 +4°C° 0.1 mm 6 mps 736 mmHg 72%
    19:00 +4°C° 0.1 mm 6 mps 736 mmHg 73%
    20:00 +4°C° 0 mm 6 mps 737 mmHg 72%
    21:00 +3°C° 0 mm 6 mps 737 mmHg 71%
    22:00 +3°C° 0 mm 6 mps 738 mmHg 70%
    23:00 +3°C° 0 mm 6 mps 738 mmHg 71%

    26 January, Saturday

    Time Temperature Precipitation Wind Pressure Humidity
    00:00 +3°C° 0 mm 6 mps 738 mmHg 71%
    01:00 +3°C° 0 mm 6 mps 738 mmHg 71%
    02:00 +2°C° 0 mm 6 mps 738 mmHg 72%
    03:00 +2°C° 0 mm 6 mps 738 mmHg 73%
    04:00 +2°C° 0 mm 6 mps 738 mmHg 74%
    05:00 +2°C° 0 mm 6 mps 738 mmHg 74%
    06:00 +2°C° 0 mm 6 mps 739 mmHg 74%
    07:00 +2°C° 0 mm 6 mps 739 mmHg 74%
    08:00 +3°C° 0 mm 7 mps 740 mmHg 71%
    09:00 +4°C° 0 mm 7 mps 740 mmHg 68%
    10:00 +5°C° 0 mm 8 mps 740 mmHg 65%
    11:00 +5°C° 0.1 mm 8 mps 740 mmHg 65%
    12:00 +5°C° 0.1 mm 8 mps 740 mmHg 64%
    13:00 +5°C° 0.1 mm 8 mps 740 mmHg 63%
    14:00 +5°C° 0 mm 8 mps 740 mmHg 63%
    15:00 +5°C° 0 mm 8 mps 741 mmHg 64%
    16:00 +5°C° 0 mm 8 mps 741 mmHg 64%
    17:00 +4°C° 0 mm 7 mps 741 mmHg 68%
    18:00 +4°C° 0 mm 7 mps 742 mmHg 72%
    19:00 +3°C° 0 mm 6 mps 742 mmHg 76%
    20:00 +3°C° 0 mm 6 mps 742 mmHg 77%
    21:00 +3°C° 0 mm 6 mps 742 mmHg 78%
    22:00 +3°C° 0 mm 6 mps 743 mmHg 79%
    23:00 +3°C° 0 mm 6 mps 743 mmHg 80%

    27 January, Sunday

    Time Temperature Precipitation Wind Pressure Humidity
    00:00 +2°C° 0 mm 5 mps 743 mmHg 81%
    01:00 +2°C° 0 mm 5 mps 743 mmHg 82%
    02:00 +2°C° 0 mm 5 mps 742 mmHg 82%
    03:00 +2°C° 0 mm 5 mps 742 mmHg 83%
    04:00 +2°C° 0 mm 5 mps 742 mmHg 83%
    05:00 +2°C° 0 mm 5 mps 742 mmHg 83%
    06:00 +3°C° 0 mm 4 mps 742 mmHg 82%
    07:00 +3°C° 0 mm 4 mps 742 mmHg 82%
    08:00 +3°C° 0 mm 4 mps 743 mmHg 79%
    09:00 +4°C° 0 mm 4 mps 743 mmHg 77%
    10:00 +5°C° 0 mm 4 mps 743 mmHg 74%
    11:00 +5°C° 0 mm 4 mps 743 mmHg 73%
    12:00 +6°C° 0 mm 4 mps 743 mmHg 73%
    13:00 +6°C° 0 mm 4 mps 743 mmHg 72%
    14:00 +6°C° 0 mm 4 mps 743 mmHg 71%
    15:00 +7°C° 0 mm 3 mps 743 mmHg 70%
    16:00 +7°C° 0 mm 3 mps 743 mmHg 69%
    17:00 +6°C° 0 mm 2 mps 743 mmHg 75%
    18:00 +5°C° 0 mm 2 mps 743 mmHg 80%
    19:00 +4°C° 0 mm 2 mps 743 mmHg 86%
    20:00 +4°C° 0 mm 2 mps 743 mmHg 87%
    21:00 +3°C° 0 mm 2 mps 743 mmHg 88%
    22:00 +3°C° 0 mm 2 mps 744 mmHg 89%
    23:00 +3°C° 0 mm 2 mps 744 mmHg 89%

    28 January, Monday

    Time Temperature Precipitation Wind Pressure Humidity
    00:00 +3°C° 0 mm 2 mps 744 mmHg 89%
    01:00 +3°C° 0 mm 2 mps 744 mmHg 89%
    02:00 +2°C° 0 mm 2 mps 744 mmHg 88%
    03:00 +3°C° 0 mm 1 mps 744 mmHg 88%
    04:00 +3°C° 0 mm 1 mps 744 mmHg 87%
    05:00 +3°C° 0 mm 1 mps 744 mmHg 87%
    06:00 +3°C° 0 mm 1 mps 744 mmHg 86%
    07:00 +3°C° 0 mm 1 mps 744 mmHg 86%
    08:00 +4°C° 0 mm 1 mps 745 mmHg 78%
    09:00 +6°C° 0 mm 1 mps 745 mmHg 71%
    10:00 +8°C° 0 mm 1 mps 745 mmHg 64%
    11:00 +8°C° 0 mm 2 mps 745 mmHg 60%
    12:00 +9°C° 0 mm 2 mps 745 mmHg 57%
    13:00 +10°C° 0 mm 3 mps 745 mmHg 53%
    14:00 +10°C° 0 mm 3 mps 746 mmHg 56%
    15:00 +10°C° 0 mm 3 mps 746 mmHg 60%
    16:00 +10°C° 0 mm 3 mps 746 mmHg 63%
    17:00 +9°C° 0 mm 3 mps 746 mmHg 70%
    18:00 +7°C° 0 mm 3 mps 746 mmHg 76%
    19:00 +5°C° 0 mm 3 mps 747 mmHg 82%
    20:00 +6°C° 0 mm 2 mps 747 mmHg 85%
    21:00 +6°C° 0 mm 2 mps 747 mmHg 87%
    22:00 +7°C° 0 mm 1 mps 747 mmHg 89%
    23:00 +6°C° 0.3 mm 2 mps 747 mmHg 90%
    Show more